Location: Jefferson
(30.9666°N, 81.7901°W)
Time: 23:11:04
(UTC+00:00)

Hubble Space Telescope - Pass Details

Date: 27 September 2024
Orbit: 504 x 508 km, 28.5° (Epoch: 06 October)

Event Time Altitude Azimuth Distance (km) Brightness Sun altitude
Exits shadow 09:20:49 20° 143° (SE) 1,206 2.7 -25.9°
Drops below altitude 10° 09:23:05 10° 109° (ESE) 1,697 4.0 -25.4°
Sets 09:25:41 0° 93° (E) 2,582 5.5 -24.9°
